Location: Unspecified
(0.0000°N, 0.0000°E)
Time: 17:13:21
(UTC+00:00)

SRMSAT - Pass Details

Date: 06 June 2020
Orbit: 848 x 866 km, 20.0° (Epoch: 06 July)

Event Time Altitude Azimuth Distance (km) Brightness Sun altitude
Exits shadow 05:23:08 - 214° (SW) 2,997 ? -8.2°
Reaches altitude 10° 05:26:34 10° 186° (S) 2,496 ? -7.4°
Maximum altitude 05:27:43 11° 175° (S) 2,458 ? -7.2°
Drops below altitude 10° 05:28:52 10° 164° (SSE) 2,496 ? -6.9°
Sets 05:34:09 0° 126° (SE) 3,433 ? -5.7°
